Probability
0 0 0 0 0 0 0 0 0 0 0 0 0 0 0 0 0 0 0 0 0 0 0 0 0 0 0 0 0 0 0 0 0 0 0 0 0 0 0 0 0 0 0
0 0 0 0 0 0 0 0 0 0 0 0 0 0 0 0 0 0 0 0 0 0 0 0 0 0 0 0 0 0 0 0 0 0 0 0 0 0 0 0 0 0 0
0 0 0 0 0 0 0 0 0 0 0 0 0 0 0 0 0 0 0 0 0 0 0 0 0 0 0 0 0 0 0 0 0 0 0 0 0 0 0 0 0 0 0
0 0 0 0 0 0 0 0 0 0 0 0 0 0 0 0 0 0 0 0 0 0 0 0 0 0 0 0 0 0 0 0 0 0 0 0 0 0 0 0 0 0 0
0 0 0 0 0 0 0 0 0 0 0 0 0 0 0 0 0 0 0 0 0 0 0 0 0 0 0 0 0 0 0 0 0 0 0 0 0 0 0 0 0 0 0
0 0 0 0 0 0 0 0 0 0 0 0 0 0 0 0 0 0 0 0 0 0 0 0 0 0 0 0 0 0 0 0 0 0 0 0 0 0 0 0 0 0 0
0 0 0 0 0 0 0 0 0 0 0 0 0 0 0 0 0 0 0 0 0 0 0 0 0 0 0 0 0 0 0 0 0 0 0 0 0 0 0 0 0 0 0
0 0 0 0 0 0 0 0 0 0 0 0 0 0 0 0 0 0 0 0 0 0 0 0 0 0 0 0 0 0 0 0 0 0 0 0 0 0 0 0 0 0 0
0 0 0 0 0 0 0 0 0 0 0 0 0 0 0 0 0 0 0 0 0 0 0 0 0 0 0 0 0 0 0 0 0 0 0 0 0 0 0 0 0 0 0
0 0 0 0 0 0 0 0 0 1 1 0 0 0 0 0 0 0 0 0 0 0 0 0 0 0 0 0 0 0 0 0 0 0 0 0 0 0 0 0 0 0 0
0 0 0 0 0 0 0 0 0 1 1 0 0 0 0 0 0 0 0 0 0 0 0 0 0 0 0 0 0 0 0 0 0 0 0 0 0 0 0 0 0 0 0
0 0 0 0 0 0 0 0 0 1 1 0 0 0 0 0 0 0 0 0 0 0 0 0 0 0 0 0 0 0 0 0 0 0 0 0 0 0 0 0 0 0 0
0 0 0 0 0 0 0 0 0 0 0 0 0 0 0 0 0 0 0 1 1 1 0 0 0 0 0 0 0 0 0 0 0 0 0 0 0 0 0 0 0 0 0
0 0 0 0 0 1 1 1 0 0 0 0 0 0 0 0 0 0 0 1 2 2 1 0 0 0 0 0 0 0 0 0 0 0 0 0 0 0 0 0 0 0 0
0 0 0 0 1 2 2 2 1 0 0 1 1 1 0 0 0 0 0 1 1 2 1 1 1 0 0 0 0 0 0 0 0 0 0 0 0 0 0 0 0 0 0
0 0 1 2 2 2 2 2 1 0 0 1 2 1 1 0 0 0 1 1 1 2 3 2 2 1 0 0 0 0 0 0 0 0 0 0 0 0 0 0 0 0 0
0 1 3 4 3 1 2 2 1 0 0 1 2 2 1 0 0 0 1 1 1 2 3 3 2 1 0 0 0 0 0 0 0 0 0 0 0 0 0 0 0 0 0
3 5 7 5 3 2 3 3 2 0 0 1 2 3 1 0 0 0 0 0 1 2 3 3 2 1 0 0 0 0 0 0 0 0 0 0 0 0 0 0 0 0 0
9 11 11 7 5 4 5 4 2 1 0 1 2 2 1 0 0 0 0 0 1 2 3 3 2 1 0 0 0 0 0 0 0 0 0 0 0 0 0 0 0 0 0
12 14 13 11 10 10 9 7 5 2 1 1 1 1 0 0 0 0 0 0 0 1 2 3 3 1 1 1 1 0 0 0 0 0 0 0 0 0 0 0 0 0 0
15 17 17 16 15 15 14 12 9 5 3 3 1 0 0 0 0 0 0 0 1 3 3 3 4 3 2 2 2 1 0 0 0 0 0 0 0 0 0 0 0 0 0
21 21 20 19 18 17 17 16 12 6 3 2 2 0 0 0 1 1 0 1 4 7 7 5 5 4 3 3 2 1 0 0 0 0 0 0 0 1 1 0 0 0 0
27 25 22 21 19 18 18 17 13 6 2 1 1 1 0 0 1 2 2 3 7 10 9 7 6 5 4 4 3 2 2 1 0 0 0 0 1 1 2 1 0 0 0
26 25 23 22 20 19 17 16 12 7 3 1 1 1 0 0 1 3 4 5 6 7 8 7 6 6 6 5 5 5 4 2 0 0 1 1 1 2 2 1 1 1 0
22 21 22 21 20 18 16 13 10 6 3 1 0 1 2 2 2 3 6 6 5 5 6 7 8 7 6 6 7 8 7 5 3 2 2 3 3 3 3 3 3 2 1
20 19 20 21 20 17 15 10 7 4 2 0 0 1 4 5 4 4 6 7 6 5 6 9 9 6 5 7 9 10 10 7 5 5 4 3 3 3 4 5 4 2 1
Wind_Speed
10 13 13 12 12 12 13 13 14 13 13 13 13 13 13 13 13 13 13 13 14 15 15 15 15 15 15 15 15 15 15 15 15 15 16 16 15 14 14 14 13 14 16
13 14 13 12 12 12 13 13 13 13 13 13 13 13 13 13 13 13 13 13 14 15 15 15 15 15 15 15 15 15 15 14 14 15 16 16 15 13 12 11 11 13 16
14 15 14 11 12 12 12 12 12 13 13 13 12 12 12 13 13 13 13 13 14 15 15 15 15 15 15 15 14 14 14 14 13 12 11 12 14 13 13 14 15 15 15
14 14 13 13 12 12 12 12 12 12 12 12 12 12 12 12 12 13 13 14 14 14 14 14 14 14 14 14 14 14 14 12 9 7 8 11 12 14 13 14 14 15 15
13 13 14 13 12 12 12 11 11 12 12 12 12 12 12 12 12 13 13 13 14 14 13 13 13 13 13 13 13 13 12 10 5 5 10 11 12 13 13 13 14 14 14
13 13 15 12 12 12 11 11 11 11 11 11 11 11 12 12 12 12 12 13 13 13 13 13 12 12 12 12 12 12 10 7 6 10 9 10 11 12 13 13 14 14 14
13 13 15 12 12 11 11 11 11 11 10 11 11 11 11 11 11 12 12 12 12 12 12 12 11 11 11 11 12 11 8 2 6 9 8 10 12 12 13 13 13 13 13
12 13 14 12 11 11 10 10 10 10 10 10 10 11 11 11 11 11 11 11 11 11 11 10 10 10 10 11 11 10 6 3 8 9 9 11 12 11 12 12 12 12 12
11 11 12 13 11 10 10 9 10 10 10 10 10 10 10 10 10 10 11 11 11 10 10 10 9 9 10 10 10 9 5 2 5 7 9 9 11 11 11 11 11 11 11
10 10 10 10 10 10 10 10 9 9 9 9 10 10 10 11 10 10 10 10 10 10 9 9 9 9 9 9 9 8 5 5 6 8 7 10 10 10 11 11 11 11 10
9 8 8 9 8 8 9 11 10 10 9 9 9 9 8 8 9 8 10 9 9 9 8 8 8 8 9 10 9 8 7 2 6 6 7 12 10 9 10 10 10 10 9
10 9 8 8 8 7 6 7 6 7 7 5 6 7 5 5 4 6 11 8 8 8 8 7 7 8 7 7 9 9 3 4 5 5 8 10 9 9 9 8 8 8 8
11 9 9 8 7 7 5 5 4 3 4 5 6 5 4 4 4 5 5 7 7 8 6 8 7 4 3 4 2 3 3 3 3 4 9 9 8 9 8 8 8 8 7
10 10 8 8 7 6 4 4 4 4 4 4 5 4 4 3 3 3 2 3 4 3 3 3 2 3 3 3 2 2 3 2 2 4 8 9 8 8 8 8 8 7 7
10 10 9 8 7 6 5 4 4 3 4 4 3 4 4 4 3 3 2 2 3 3 4 3 2 3 3 3 3 3 2 2 2 3 7 9 7 7 7 8 8 7 7
10 10 8 8 8 7 5 4 3 4 3 3 4 4 5 3 3 3 4 3 3 3 2 2 3 3 3 2 3 3 2 2 3 2 4 9 9 7 7 7 7 8 7
10 9 9 9 8 7 6 6 4 4 4 4 4 5 5 5 4 4 4 4 3 3 3 3 3 3 4 4 3 3 2 2 3 3 3 4 8 10 8 8 8 8 8
9 9 9 8 9 8 7 6 5 4 4 4 4 5 6 5 5 5 4 4 3 4 4 3 4 3 3 3 3 3 2 3 4 4 4 4 4 6 10 10 9 8 9
9 9 10 9 9 8 7 6 5 4 4 4 4 5 6 6 7 6 4 3 4 4 4 4 4 3 3 3 3 3 3 3 4 5 4 5 5 5 5 10 11 10 10
9 10 10 10 9 8 6 5 5 5 5 5 5 5 6 6 7 6 5 5 6 5 4 4 3 3 3 3 4 2 3 3 4 4 5 5 5 6 6 6 8 10 12
10 10 10 10 9 7 6 6 6 5 5 5 6 7 7 7 7 7 6 6 6 6 5 6 5 6 5 4 3 3 4 5 5 4 5 5 6 6 6 6 6 5 7
11 11 10 10 10 9 7 5 4 4 4 5 5 6 7 8 8 8 8 7 7 5 6 6 6 5 5 5 4 4 4 4 6 6 5 6 6 6 7 8 7 6 6
11 11 10 10 10 10 9 6 5 4 4 5 6 6 7 8 9 8 9 8 6 7 6 7 7 8 6 5 5 4 4 3 2 4 6 6 5 5 6 6 8 8 8
10 10 9 10 10 9 9 8 8 7 7 6 5 5 7 8 9 9 10 9 8 7 7 8 8 6 7 6 5 5 5 3 3 3 5 6 7 7 7 6 7 8 8
9 9 9 9 9 9 9 8 8 8 6 5 5 5 6 6 8 9 9 8 8 7 7 8 6 7 6 7 5 5 5 5 7 6 4 4 5 6 6 7 6 6 7
8 8 8 9 9 9 9 9 9 9 8 6 6 6 6 5 6 8 8 8 8 7 8 8 7 9 7 7 6 5 5 5 6 6 6 5 4 4 5 4 5 5 5
Wind_Direction
130 119 117 116 111 109 110 111 111 112 110 109 108 107 105 104 103 101 100 100 100 100 100 99 98 98 98 99 98 99 100 101 100 101 101 100 102 105 110 116 120 108 109
130 121 122 120 116 112 112 113 112 112 111 110 109 108 107 106 105 103 102 102 103 103 102 100 99 99 99 99 99 100 101 101 103 105 109 104 100 101 100 94 90 104 112
130 125 131 121 118 114 113 114 113 113 113 112 110 109 108 107 106 106 104 104 104 104 103 103 102 100 99 99 99 101 101 103 107 119 128 111 105 100 98 96 100 109 112
132 131 125 122 121 117 115 114 114 114 113 112 111 111 110 107 107 106 105 105 104 104 105 104 103 101 100 99 99 100 101 105 116 151 117 105 105 101 103 105 107 110 110
128 123 121 130 124 121 117 115 115 114 114 113 111 111 110 107 106 106 106 106 106 105 106 105 103 102 103 102 101 102 104 109 133 117 95 99 100 106 108 109 110 110 110
136 134 124 133 127 124 121 118 117 117 116 114 113 112 112 110 108 108 108 107 108 107 106 105 105 105 106 105 105 105 109 135 168 99 103 105 104 108 110 110 110 112 112
137 129 129 134 130 128 125 122 120 119 117 116 114 114 113 113 113 112 110 109 109 108 107 106 105 106 107 108 109 109 115 170 101 99 101 97 100 109 110 109 110 112 113
137 133 127 133 133 131 128 125 123 121 117 117 117 116 114 113 113 114 113 112 111 110 109 107 106 106 108 110 112 114 126 211 111 103 97 98 103 110 112 112 112 112 114
139 135 141 144 142 138 132 130 128 123 120 119 119 118 118 117 117 118 116 116 115 114 112 108 107 108 111 113 117 118 116 305 108 109 106 103 111 115 115 117 117 115 116
144 142 144 145 144 152 145 136 133 130 127 122 121 121 122 124 124 129 132 118 118 116 115 112 110 111 114 117 122 125 148 225 106 109 105 110 120 122 123 121 122 122 122
149 148 152 146 152 157 147 139 146 141 137 142 136 136 158 149 138 152 111 120 121 120 117 114 114 121 130 128 130 148 191 144 99 94 95 112 130 128 127 126 125 127 128
161 162 156 156 155 162 149 148 158 155 150 158 138 154 152 120 127 117 119 128 127 127 130 122 128 159 185 139 144 185 167 116 117 113 106 124 135 134 134 133 131 133 134
167 169 164 161 165 170 155 165 156 147 147 150 143 149 129 144 143 140 146 150 151 162 159 149 178 176 141 104 141 140 104 118 115 110 116 136 144 144 145 144 142 141 141
175 175 173 166 171 173 172 164 171 161 160 155 146 174 154 155 153 141 158 149 161 162 153 171 161 137 126 132 134 121 138 149 116 104 122 143 155 158 158 156 156 156 157
179 179 178 178 173 175 179 198 175 167 166 154 156 167 172 171 169 155 148 163 178 161 172 185 169 150 163 163 163 156 139 119 117 137 129 150 163 169 172 171 170 169 170
184 183 179 186 183 186 186 195 186 183 175 169 177 173 187 186 168 171 176 187 187 184 170 185 172 186 197 177 180 158 183 144 137 174 150 155 171 180 185 185 184 183 182
187 186 185 188 188 197 198 199 197 197 189 191 181 182 194 200 178 196 190 195 189 178 176 199 189 202 202 192 185 180 188 192 159 176 183 171 170 181 190 195 199 197 197
186 186 190 192 188 197 204 211 209 208 199 202 197 191 197 203 198 211 207 203 189 201 194 188 208 207 204 207 194 202 184 186 188 193 197 198 195 178 181 191 201 204 206
188 185 188 197 193 197 200 207 216 209 216 216 207 203 196 205 205 217 220 203 208 211 208 216 188 215 205 217 209 201 213 206 201 206 206 209 202 205 185 173 193 206 212
187 188 190 195 196 196 200 207 216 215 215 220 217 207 206 209 211 222 220 207 218 215 214 219 203 218 228 227 238 209 227 219 219 211 221 214 209 212 209 186 190 199 209
188 191 193 197 191 194 199 207 209 213 215 216 218 213 212 216 215 222 232 208 222 218 219 215 210 206 219 215 231 228 229 228 223 214 221 228 216 217 218 208 218 214 195
193 193 194 198 194 197 200 207 215 220 225 225 226 213 219 218 221 219 226 227 220 221 217 222 218 232 224 209 229 239 233 216 219 219 212 217 224 215 217 213 215 221 237
193 195 197 198 195 199 201 203 204 204 221 218 220 217 219 220 223 231 227 230 224 227 216 219 218 224 230 224 226 242 258 249 229 206 217 220 221 224 228 221 218 216 223
195 192 195 195 198 197 200 207 209 217 221 221 220 221 221 223 227 228 229 229 227 229 222 224 218 224 228 230 220 232 258 298 273 242 212 210 215 222 233 235 228 217 221
190 189 191 193 198 199 203 206 216 229 231 230 225 228 227 225 230 230 229 229 225 230 229 233 226 229 227 235 236 230 233 237 244 261 258 231 219 220 223 227 237 236 227
177 182 186 188 195 198 203 209 218 230 237 238 236 235 225 221 228 228 229 228 227 228 226 227 227 226 234 240 246 246 238 239 240 245 252 247 237 227 220 230 236 236 234